Location: Fort Worth, Tx
(32.7431°N, 97.3695°W)
Time: 07:53:20
(UTC-04:00)

Explorer 11/Cluster Stage 4 - Pass Details

Date: 30 January 2023
Orbit: 466 x 1241 km, 28.8° (Epoch: 02 April)

Event Time Altitude Azimuth Distance (km) Brightness Sun altitude
Exits shadow 05:43:17 13° 184° (S) 2,911 9.4 -34.3°
Maximum altitude 05:47:22 19° 150° (SSE) 2,552 9.4 -33.4°
Drops below altitude 10° 05:52:44 10° 108° (ESE) 3,187 10.5 -32.3°
Sets 05:56:31 0° 92° (E) 4,105 11.4 -31.5°
